Find Starlink 30239

NORAD ID: 57291 Int'l Des: 2023-096 Owner: SPXS Country: US Constellation: starlink operational
LEOCIRCULAR

リアルタイム位置

3D地球を読み込み中...

Starlink 30239について

説明を読み込み中...

次回通過

Passes for default location (London). Set your location on the main map for personalized predictions.

高度履歴

Loading altitude history...

軌道要素

1 57291U 23096B 26133.26041282 .00002621 00000-0 10479-3 0 9999
2 57291 43.0021 218.4341 0001411 273.0786 86.9904 15.27567498157495
Epoch: May 13, 2026 • Age: 13 hours

現在のステータス

高度 487.1 km
速度 7.63 km/s
衛星直下点 42.70°N, 155.63°E
打ち上げ日 Jul 10, 2023
運用期間 2.8 years
タイプ internet

技術仕様

分類 Payload
質量 730.00 kg
乾燥質量 700.00 kg
総質量 730.00 kg
長さ 0.30 m
直径 4.10 m
スパン 29.00 m
形状 Box + pan
製造者 SPXS
バスタイプ Starlink V2M
フェーズステータス In Orbit
所有者/国 SPXS/US

Most Searched